Home   Weather   Portland   Past weeks

Flag for USA Past Weather in Portland, Oregon, USA — Yesterday and Last 2 Weeks

Now
32 °F

Light rain. Overcast.


Feels Like: 32 °F
Forecast: 38 / 45 °F
Wind: No wind

Location: Portland International Airport

Current Time: Dec 10, 2016 at 6:51:10 am

Latest Report: Dec 10, 2016 at 5:53 am


Visibility: 10 mi

Pressure: 29.96 "Hg

Humidity: 88%

Dew Point: 29 °F

Location of PortlandLocation

Past Weather in Portland — Graph

°F

Portland Temperature Yesterday

Maximum temperature yesterday: 33 °F (at 10:53 am)
Minimum temperature yesterday: 32 °F (at 12:53 am)
Average temperature yesterday: 33 °F

High & Low Weather Summary for the Past Weeks

 TemperatureHumidityPressure
High56 °F (Nov 26, 3:53 pm)100% (Dec 7, 4:01 am)30.40 "Hg (Dec 7, 4:01 am)
Low30 °F (Dec 6, 10:53 pm)49% (Dec 8, 3:53 am)29.41 "Hg (Nov 26, 3:53 pm)
Average42 °F82%30.07 "Hg
* Reported Nov 25 4:53 am — Dec 10 4:53 am, Portland, Weather by CustomWeather, © 2016

Note: Actual official high and low records may vary slightly from our data, if they occured in-between our weather recording intervals... More about our weather records

Advertising

Portland Weather History for the Previous 24 Hours

Scroll right to see more
 ConditionsComfort  
Time TempWeatherWind HumidityBarometerVisibility
4:53 am
Sat, Dec 10
32 °FLight rain. Overcast.8 mph88%29.93 "Hg10 mi
3:53 am32 °FLight rain. Overcast.6 mph92%29.93 "Hg10 mi
2:53 am32 °FLight rain. Low clouds.8 mph96%29.93 "Hg10 mi
2:02 am32 °FLight rain. Ice fog.7 mph96%29.93 "Hg5 mi
1:53 am32 °FLight rain. Mostly cloudy.5 mph92%29.93 "Hg7 mi
12:53 am33 °FLight rain. Mostly cloudy.7 mph92%29.91 "Hg9 mi
11:53 pm
Fri, Dec 9
33 °FLight rain. Mostly cloudy.10 mph92%29.91 "Hg7 mi
10:53 pm33 °FLight rain. Mostly cloudy.17 mph88%29.89 "Hg9 mi
9:53 pm33 °FLight rain. Fog.9 mph92%29.89 "Hg5 mi
8:53 pm33 °FLight rain. Fog.12 mph88%29.89 "Hg5 mi
7:53 pm32 °FLight rain. Ice fog.17 mph92%29.92 "Hg6 mi
6:53 pm33 °FLight rain. Fog.13 mph88%29.94 "Hg4 mi
5:53 pm33 °FLight rain. Mostly cloudy.7 mph88%29.94 "Hg9 mi
4:53 pm33 °FFog.10 mph88%29.97 "Hg6 mi
3:53 pm33 °FLight rain. Fog.13 mph92%29.99 "Hg3 mi
2:53 pm33 °FLight rain. Fog.6 mph88%29.98 "Hg4 mi
1:53 pm32 °FLight rain. Ice fog.17 mph92%30.01 "Hg2 mi
12:53 pm33 °FLight rain. Fog.13 mph88%30.02 "Hg2 mi
11:58 am32 °FLight freezing rain. Ice fog.15 mph92%30.04 "Hg1 mi
10:53 am33 °FFog.14 mph85%30.06 "Hg4 mi
9:53 am32 °FLight freezing rain. Ice fog.10 mph88%30.07 "Hg3 mi
8:53 am32 °FLight freezing rain. Ice fog.17 mph88%30.06 "Hg3 mi
7:53 am32 °FLight freezing rain. Ice fog.12 mph88%30.06 "Hg3 mi
6:53 am32 °FLight freezing rain. Mostly cloudy.15 mph85%30.06 "Hg8 mi
Weather by CustomWeather, © 2016

See weather overviewHow to use our weather pages